Showing default

NOAA 6, 11416

Orbit data source: Space-Track

NOAA 6, 11416 is a payload satellite owned by NOAA (US) in SSO that was launched on Wed, 27 Jun 1979 UTC via an ATLAS F launch vehicle from the Air Force Western Test Range (AFWTR). Payload-class satellites include a variety of spacecraft equipped with specific instruments for various scientific and technological missions. These include communications satellites like Starlink; space stations such as the ISS; scientific satellites like the Hubble; Earth observation satellites from companies like Planet Labs, Umbra, and HawkEye 360; GPS; miniature CubeSats for education and research; and military/defense satellites.

Loading next visibility...
Identifier
11416, 1979-057A
Orbit
SSO
Country
Flag of USUS
Related business
Manufacturer
RCA/East Windsor
Mission
Non-operational spacecraft
Bus & Motor
TIROS N, STAR 37S
Mass
1,418 kg wet, 684 kg dry
Launch date (UTC)
1979-06-27 (46 years ago)
Launch vehicle
ATLAS F
Launch site
Air Force Western Test Range (AFWTR)
Object type
Payload
Rocket body
Debris
Shape & HBR
Unknown
Radar Cross Section
Large (>1 m²)

Expand to show TLE details & history
Last TLE update: 11 hours ago

TLE from 11 hours ago
0 NOAA 6
1 11416U 79057A   25309.05279654  .00000357  00000-0  14003-3 0  9994
2 11416  98.5886 334.8990 0009519 196.4053 163.6826 14.35307464418807
Epoch: 2025-11-05T01:16Z
TLE epoch observation values (Epoch: 2025-11-05T01:16:01.621Z)
Latitude
0.00005°
Longitude
-88.63876°
Altitude
783.52 km
Speed
7.459 km/s
True Right ascension
22h 19m 35s
True Declination
0° 00' 00"
Sunlit
Object was in daylight at epoch
Visualization orbit readout
Latitude
Unknown
Longitude
Unknown
Altitude
Unknown
Speed
Unknown
Apparent Right ascension
Unknown
Apparent Declination
Unknown
Sunlit
N/A
Visualization observer readout
Local Sidereal Time
07:46:29
Azimuth
Unknown
Elevation
Unknown
Doppler factor
Unknown
Orbital elements
Apogee altitude
777.983 km
Perigee altitude
764.372 km
Semi-major axis
7,149.314 km
Eccentricity
0.00095
Inclination
98.5886°
RAAN
334.899°
Arg. of periapsis
196.4053°
True anomaly
163.71321°
Mean anomaly
163.6826°
Eccentric anomaly
163.69791°
Mean motion
3.59043 °/min
Orbital period
100.27 mins
BSTAR
0.00014003
Loading maneuver chart data...
Computing Atmospheric mass density...
Loading historical data...
Loading historical data...
Loading historical data...
Loading historical data...
Loading historical data...
Loading historical data...
Loading historical data...

Documentation

Showing up to 5 results
|